EW4363 Weather Reports


Display with metric or nautical units.
time (UTC)temp
F
wind
direction
speed
MPH
gust
MPH
rain 1hr
in
rain 24hr
in
rain mn
in
humidity
%
barometer
mb
20260504100304 73 326 1.0 3.0 0.00 0.02 0.00 58 1010.9
20260504081305 68 273 1.0 3.0 0.00 0.02 0.00 65 1011.4
20260504080804 68 264 2.0 3.0 0.00 0.02 0.00 66 1011.5
20260504080304 68 270 1.0 5.0 0.00 0.02 0.00 66 1011.4
20260504070305 65 269 1.0 5.0 0.00 0.02 0.00 73 1012.0
20260504050305 59 273 0.0 1.0 0.00 0.02 0.00 85 1012.1
20260504045804 59 273 0.0 1.0 0.00 0.02 0.00 85 1012.1
20260504044804 59 273 0.0 1.0 0.00 0.02 0.00 85 1012.1
20260504044305 59 273 0.0 1.0 0.00 0.02 0.00 86 1012.1
20260504043304 59 273 0.0 1.0 0.00 0.02 0.00 87 1012.3
20260504042804 59 320 0.0 1.0 0.00 0.02 0.00 87 1012.3
20260504042304 59 323 0.0 0.0 0.00 0.02 0.00 89 1012.3
20260504041304 59 323 0.0 0.0 0.00 0.02 0.00 89 1012.2
20260504040805 59 323 0.0 0.0 0.00 0.02 0.00 89 1012.2
20260504040304 59 323 0.0 0.0 0.00 0.02 0.00 89 1012.3
20260504035305 59 323 0.0 0.0 0.00 0.02 0.00 88 1012.3
20260504034305 59 323 0.0 0.0 0.00 0.02 0.00 88 1012.2
20260504033304 59 323 0.0 0.0 0.00 0.02 0.00 88 1012.2
20260504032305 59 323 0.0 0.0 0.00 0.02 0.00 87 1012.2
20260504031805 59 323 0.0 0.0 0.00 0.02 0.00 88 1012.2
20260504030804 59 323 0.0 0.0 0.00 0.02 0.00 88 1012.3
20260504030305 59 323 0.0 0.0 0.00 0.02 0.00 88 1012.3
20260504025804 59 323 0.0 1.0 0.00 0.02 0.00 88 1012.3
20260504025304 59 322 0.0 0.0 0.00 0.02 0.00 88 1012.3
20260504024805 59 322 0.0 0.0 0.00 0.02 0.00 88 1012.4
20260504024305 59 322 0.0 0.0 0.00 0.02 0.00 88 1012.3
20260504023806 59 322 0.0 1.0 0.00 0.02 0.00 88 1012.3
20260504023305 59 321 0.0 1.0 0.00 0.02 0.00 88 1012.3
20260504022805 59 321 0.0 0.0 0.00 0.02 0.00 87 1012.2
20260504022305 59 321 0.0 0.0 0.00 0.02 0.00 88 1012.2
20260504021805 59 321 0.0 0.0 0.00 0.02 0.00 88 1012.3
20260504021304 59 321 0.0 1.0 0.00 0.02 0.00 88 1012.3
20260504020805 59 321 0.0 1.0 0.00 0.02 0.00 88 1012.3
20260504020305 59 325 0.0 1.0 0.00 0.02 0.00 88 1012.4
20260504015805 59 323 0.0 1.0 0.00 0.02 0.00 88 1012.6
20260504015305 59 325 0.0 0.0 0.00 0.02 0.00 87 1012.6
20260504014805 59 324 0.0 0.0 0.00 0.02 0.00 87 1012.6
20260504014305 60 331 0.0 0.0 0.00 0.02 0.00 87 1012.6
20260504013805 60 331 0.0 0.0 0.00 0.02 0.00 87 1012.6
20260504013304 60 331 0.0 0.0 0.00 0.02 0.00 87 1012.5
20260504012805 60 331 0.0 0.0 0.00 0.02 0.00 86 1012.5
20260504012306 60 331 0.0 0.0 0.00 0.02 0.00 87 1012.6
20260504011805 60 331 0.0 0.0 0.00 0.02 0.00 87 1012.7
20260504011306 60 0 0.0 0.0 0.00 0.02 0.00 87 1012.8
20260504010803 60 331 0.0 0.0 0.00 0.02 0.00 87 1012.8
20260504010303 60 331 0.0 0.0 0.00 0.02 0.00 86 1012.8
20260504005803 60 331 0.0 0.0 0.00 0.02 0.00 87 1012.9
20260504005305 60 331 0.0 0.0 0.00 0.02 0.00 86 1012.9
20260504004803 60 331 0.0 0.0 0.00 0.02 0.00 86 1013.0
20260504004304 60 331 0.0 0.0 0.00 0.02 0.00 86 1013.1
20260504003803 60 331 0.0 0.0 0.00 0.02 0.00 86 1012.9
20260504003303 60 331 0.0 0.0 0.00 0.02 0.00 86 1013.0
20260504002804 60 331 0.0 1.0 0.00 0.02 0.00 86 1013.1
20260504002304 60 331 0.0 0.0 0.00 0.02 0.00 86 1013.1
20260504001803 60 331 0.0 0.0 0.00 0.02 0.00 86 1013.2
20260504001303 60 331 0.0 0.0 0.00 0.02 0.00 86 1013.2
20260504000803 60 331 0.0 0.0 0.00 0.02 0.00 86 1013.3
20260504000303 60 331 0.0 0.0 0.00 0.02 0.00 86 1013.3
20260503235803 60 331 0.0 0.0 0.00 0.02 0.00 86 1013.3
20260503235304 60 331 0.0 0.0 0.00 0.02 0.00 86 1013.2
20260503234803 60 331 0.0 0.0 0.00 0.02 0.00 86 1013.2
20260503234304 60 331 0.0 0.0 0.00 0.02 0.00 86 1013.2
20260503233803 60 331 0.0 0.0 0.00 0.02 0.00 85 1013.2
20260503233304 60 331 0.0 0.0 0.00 0.02 0.00 86 1013.3
20260503232804 60 331 0.0 0.0 0.00 0.02 0.00 85 1013.4
20260503232305 60 331 0.0 0.0 0.00 0.02 0.00 85 1013.4
20260503231803 60 331 0.0 0.0 0.00 0.02 0.00 85 1013.4
20260503231303 60 331 0.0 0.0 0.00 0.02 0.00 85 1013.4
20260503230303 60 331 0.0 1.0 0.00 0.02 0.00 85 1013.4
20260503225804 60 331 0.0 0.0 0.00 0.02 0.00 85 1013.5
20260503225304 60 331 0.0 1.0 0.00 0.02 0.00 85 1013.4
20260503224803 61 331 0.0 0.0 0.00 0.02 0.00 85 1013.5
20260503223804 61 330 0.0 2.0 0.00 0.02 0.00 84 1013.4
20260503223303 61 324 0.0 3.0 0.00 0.02 0.00 83 1013.4
20260503222803 61 321 1.0 2.0 0.00 0.02 0.00 83 1013.4
20260503222304 61 324 1.0 2.0 0.00 0.02 0.00 82 1013.4
20260503221803 61 286 0.0 2.0 0.00 0.02 0.00 81 1013.4
20260503221304 61 276 1.0 3.0 0.00 0.02 0.00 81 1013.3
20260503220811 61 274 0.0 3.0 0.00 0.02 0.00 81 1013.3
20260503215803 61 287 2.0 6.0 0.00 0.02 0.02 81 1013.3
20260503215304 61 284 0.0 3.0 0.00 0.02 0.02 81 1013.3
20260503214803 61 284 1.0 6.0 0.00 0.02 0.02 81 1013.3
20260503214303 61 289 1.0 3.0 0.00 0.02 0.02 81 1013.3
20260503213803 61 307 0.0 3.0 0.00 0.02 0.02 81 1013.4
20260503212305 62 326 1.0 2.0 0.00 0.02 0.02 80 1013.3
20260503211803 62 325 0.0 2.0 0.00 0.02 0.02 80 1013.5
20260503210804 62 323 0.0 1.0 0.00 0.02 0.02 82 1013.6
20260503210303 62 326 0.0 0.0 0.00 0.02 0.02 82 1013.6
20260503205804 62 326 0.0 0.0 0.00 0.02 0.02 82 1013.6
20260503205304 62 326 0.0 0.0 0.00 0.02 0.02 81 1013.7
20260503204803 62 326 0.0 0.0 0.00 0.02 0.02 81 1013.7
20260503204304 62 326 0.0 0.0 0.00 0.02 0.02 81 1013.7
20260503203804 62 326 0.0 0.0 0.00 0.02 0.02 81 1013.8
20260503203304 62 326 0.0 0.0 0.00 0.02 0.02 81 1013.7
20260503202803 61 326 0.0 0.0 0.00 0.02 0.02 81 1013.7
20260503202304 61 326 0.0 0.0 0.00 0.02 0.02 81 1013.7
20260503201804 61 326 0.0 1.0 0.00 0.02 0.02 81 1013.8
20260503201303 62 326 0.0 0.0 0.00 0.02 0.02 81 1013.7
20260503200303 62 326 0.0 0.0 0.00 0.02 0.02 81 1013.8
20260503195804 62 326 0.0 0.0 0.00 0.02 0.02 81 1013.8
20260503195304 61 326 0.0 0.0 0.00 0.02 0.02 81 1013.7
20260503194804 61 326 0.0 0.0 0.00 0.02 0.02 82 1013.7
20260503194303 61 326 0.0 1.0 0.00 0.02 0.02 81 1013.7
20260503193804 61 326 0.0 1.0 0.00 0.02 0.02 81 1013.6
20260503192803 62 328 0.0 2.0 0.00 0.02 0.02 81 1013.5
20260503191803 62 326 1.0 3.0 0.00 0.02 0.02 80 1013.4
20260503191303 62 330 0.0 2.0 0.00 0.02 0.02 80 1013.4
20260503190804 62 315 1.0 3.0 0.00 0.02 0.02 80 1013.3
20260503190304 62 324 1.0 3.0 0.00 0.02 0.02 79 1013.3
20260503185803 62 325 1.0 3.0 0.00 0.02 0.02 79 1013.2
20260503184804 62 332 0.0 3.0 0.00 0.02 0.02 78 1013.2
20260503184304 62 325 1.0 3.0 0.00 0.02 0.02 78 1013.2
20260503183803 63 323 1.0 3.0 0.00 0.02 0.02 77 1013.2
20260503182804 63 326 1.0 2.0 0.00 0.02 0.02 75 1013.2
20260503181304 63 322 0.0 2.0 0.00 0.02 0.02 73 1013.3
20260503180804 63 327 1.0 3.0 0.00 0.02 0.02 73 1013.3
20260503180304 63 324 1.0 3.0 0.00 0.02 0.02 72 1013.3
20260503175804 63 327 0.0 3.0 0.00 0.02 0.02 72 1013.3
20260503175304 63 322 1.0 3.0 0.00 0.02 0.02 72 1013.3
20260503174803 63 323 0.0 3.0 0.00 0.02 0.02 72 1013.3
20260503174304 63 328 0.0 3.0 0.00 0.02 0.02 71 1013.3
20260503173805 63 328 1.0 5.0 0.00 0.02 0.02 70 1013.2
20260503173303 64 322 2.0 5.0 0.00 0.02 0.02 69 1013.1
20260503172804 64 330 1.0 3.0 0.00 0.02 0.02 69 1013.0
20260503172305 64 328 0.0 2.0 0.00 0.02 0.02 68 1012.9
20260503171803 64 291 0.0 2.0 0.00 0.02 0.02 68 1012.9
20260503150804 67 322 2.0 3.0 0.00 0.02 0.02 66 1012.7
20260503150304 67 325 2.0 3.0 0.00 0.02 0.02 65 1012.7
20260503140304 68 314 2.0 3.0 0.00 0.02 0.02 65 1013.6
20260503131304 68 323 3.0 6.0 0.00 0.02 0.02 62 1014.6
20260503130805 68 322 1.0 6.0 0.00 0.02 0.02 62 1014.7
20260503130304 68 323 1.0 3.0 0.00 0.02 0.02 63 1014.7
20260503110804 65 281 0.0 2.0 0.02 0.02 0.02 80 1015.3
20260503110304 64 323 0.0 1.0 0.02 0.02 0.02 80 1015.5